Overview Statistics Trail Chart Weather Telemetry Raw packets
 

This is the latest recevied weather packets stored in our database for station/object K4PAD. If no packets are shown the sender has not sent any weather packets the latest 10 day(s).

<< 109 110 111 112 113 114 >>
Time Temp. Humidity Pressure Rain* Wind** Luminosity Snow
1787777219 33.89° C 52% 1016.4 hPa 0 mm - 458 W/m² -
1787776918 33.33° C 53% 1016.4 hPa 0 mm - 521 W/m² -
1787776616 33.33° C 55% 1016.4 hPa 0 mm - 226 W/m² -
1787776316 33.89° C 52% 1016.4 hPa 0 mm - 226 W/m² -
1787776014 33.89° C 53% 1016.3 hPa 0 mm - 415 W/m² -
1787775709 33.89° C 53% 1016.5 hPa 0 mm - 282 W/m² -
1787775408 33.89° C 53% 1016.4 hPa 0 mm - 716 W/m² -
1787775102 33.89° C 53% 1016.5 hPa 0 mm - 678 W/m² -
1787774802 34.44° C 54% 1016.8 hPa 0 mm - 806 W/m² -
1787774496 33.89° C 53% 1016.5 hPa 0 mm - 385 W/m² -
1787774195 34.44° C 50% 1016.8 hPa 0 mm - 774 W/m² -
1787773894 34.44° C 51% 1016.8 hPa 0 mm - 861 W/m² -
1787773593 34.44° C 50% 1016.6 hPa 0 mm - 848 W/m² -
1787773289 33.89° C 50% 1016.6 hPa 0 mm - 918 W/m² -
1787772984 33.89° C 50% 1016.7 hPa 0 mm - 960 W/m² -
1787772680 33.89° C 50% 1016.6 hPa 0 mm - 874 W/m² -
1787772377 33.89° C 47% 1016.6 hPa 0 mm - 912 W/m² -
1787772072 33.89° C 49% 1016.6 hPa 0 mm - 946 W/m² -
1787771772 33.89° C 52% 1017 hPa 0 mm - 1023 W/m² -
1787771470 33.89° C 52% 1017 hPa 0 mm - 973 W/m² -
1787771170 33.89° C 54% 1016.8 hPa 0 mm - 956 W/m² -
1787770866 33.33° C 50% 1016.9 hPa 0 mm - 955 W/m² -
1787770563 33.33° C 52% 1016.9 hPa 0 mm - 974 W/m² -
1787770258 33.33° C 51% 1017 hPa 0 mm - 963 W/m² -
1787769957 33.33° C 52% 1016.7 hPa 0 mm - 973 W/m² -

* Rain latest hour (hover to see other rain measurements)
** Current wind speed in m/s (hover to see current wind gust speed)